• In Romania
  • List of Countries
  • For 7 days
  • Water Temperature
  • Satellite Maps
  • Weather Map
  • Weather Widgets
  • user-avatar
    Login

    Hourly Weather Kotagiri

    Today, 21 February, Wednesday

    Time Temperature Precipitation Wind Pressure Humidity
    00:00 +15°C° 0 mm 1 mps 618 mmHg 55%
    01:00 +14°C° 0 mm 1 mps 618 mmHg 59%
    02:00 +14°C° 0 mm 1 mps 617 mmHg 63%
    03:00 +13°C° 0 mm 1 mps 617 mmHg 66%
    04:00 +13°C° 0 mm 1 mps 617 mmHg 68%
    05:00 +13°C° 0 mm 1 mps 617 mmHg 70%
    06:00 +14°C° 0 mm 1 mps 618 mmHg 65%
    07:00 +15°C° 0 mm 1 mps 619 mmHg 59%
    08:00 +18°C° 0 mm 1 mps 619 mmHg 53%
    09:00 +20°C° 0 mm 1 mps 620 mmHg 45%
    10:00 +21°C° 0 mm 2 mps 621 mmHg 36%
    11:00 +25°C° 0 mm 3 mps 621 mmHg 25%
    12:00 +26°C° 0 mm 3 mps 621 mmHg 23%
    13:00 +26°C° 0 mm 3 mps 621 mmHg 21%
    14:00 +27°C° 0 mm 3 mps 620 mmHg 20%
    15:00 +26°C° 0 mm 3 mps 620 mmHg 20%
    16:00 +26°C° 0 mm 2 mps 620 mmHg 21%
    17:00 +24°C° 0 mm 2 mps 619 mmHg 23%
    18:00 +21°C° 0 mm 2 mps 619 mmHg 26%
    19:00 +20°C° 0 mm 1 mps 618 mmHg 29%
    20:00 +18°C° 0 mm 1 mps 618 mmHg 33%
    21:00 +18°C° 0 mm 1 mps 618 mmHg 35%
    22:00 +16°C° 0 mm 1 mps 618 mmHg 38%
    23:00 +15°C° 0 mm 1 mps 618 mmHg 40%

    Tomorrow, 22 February, Thursday

    Time Temperature Precipitation Wind Pressure Humidity
    00:00 +15°C° 0 mm 1 mps 618 mmHg 44%
    01:00 +14°C° 0 mm 1 mps 618 mmHg 47%
    02:00 +14°C° 0 mm 1 mps 617 mmHg 51%
    03:00 +13°C° 0 mm 1 mps 617 mmHg 54%
    04:00 +13°C° 0 mm 1 mps 617 mmHg 57%
    05:00 +12°C° 0 mm 1 mps 617 mmHg 60%
    06:00 +14°C° 0 mm 1 mps 618 mmHg 56%
    07:00 +15°C° 0 mm 1 mps 618 mmHg 52%
    08:00 +18°C° 0 mm 1 mps 619 mmHg 49%
    09:00 +20°C° 0 mm 1 mps 620 mmHg 40%
    10:00 +21°C° 0 mm 2 mps 620 mmHg 32%
    11:00 +24°C° 0 mm 2 mps 621 mmHg 24%
    12:00 +25°C° 0 mm 3 mps 621 mmHg 22%
    13:00 +26°C° 0 mm 3 mps 620 mmHg 20%
    14:00 +27°C° 0 mm 3 mps 620 mmHg 19%
    15:00 +26°C° 0 mm 3 mps 619 mmHg 19%
    16:00 +26°C° 0 mm 2 mps 619 mmHg 20%
    17:00 +25°C° 0 mm 2 mps 619 mmHg 21%
    18:00 +23°C° 0 mm 2 mps 619 mmHg 24%
    19:00 +20°C° 0 mm 2 mps 618 mmHg 28%
    20:00 +18°C° 0 mm 1 mps 618 mmHg 32%
    21:00 +18°C° 0 mm 1 mps 618 mmHg 35%
    22:00 +16°C° 0 mm 1 mps 618 mmHg 38%
    23:00 +15°C° 0 mm 1 mps 618 mmHg 41%

    Day after tomorrow, 23 February, Friday

    Time Temperature Precipitation Wind Pressure Humidity
    00:00 +15°C° 0 mm 1 mps 618 mmHg 44%
    01:00 +14°C° 0 mm 1 mps 617 mmHg 46%
    02:00 +13°C° 0 mm 1 mps 617 mmHg 49%
    03:00 +13°C° 0 mm 1 mps 617 mmHg 52%
    04:00 +13°C° 0 mm 1 mps 617 mmHg 55%
    05:00 +12°C° 0 mm 1 mps 616 mmHg 58%
    06:00 +14°C° 0 mm 1 mps 617 mmHg 54%
    07:00 +15°C° 0 mm 1 mps 618 mmHg 50%
    08:00 +18°C° 0 mm 1 mps 619 mmHg 47%
    09:00 +19°C° 0 mm 2 mps 620 mmHg 39%
    10:00 +21°C° 0 mm 2 mps 621 mmHg 30%
    11:00 +24°C° 0 mm 3 mps 621 mmHg 22%
    12:00 +25°C° 0 mm 3 mps 621 mmHg 21%
    13:00 +26°C° 0 mm 3 mps 620 mmHg 20%
    14:00 +26°C° 0 mm 3 mps 620 mmHg 18%
    15:00 +26°C° 0 mm 3 mps 620 mmHg 19%
    16:00 +25°C° 0 mm 3 mps 619 mmHg 21%
    17:00 +24°C° 0 mm 2 mps 619 mmHg 22%
    18:00 +21°C° 0 mm 2 mps 619 mmHg 26%
    19:00 +19°C° 0 mm 2 mps 619 mmHg 30%
    20:00 +18°C° 0 mm 1 mps 618 mmHg 33%
    21:00 +16°C° 0 mm 1 mps 618 mmHg 36%
    22:00 +16°C° 0 mm 1 mps 618 mmHg 38%
    23:00 +15°C° 0 mm 1 mps 619 mmHg 40%

    24 February, Saturday

    Time Temperature Precipitation Wind Pressure Humidity
    00:00 +15°C° 0 mm 1 mps 618 mmHg 43%
    01:00 +14°C° 0 mm 1 mps 618 mmHg 47%
    02:00 +14°C° 0 mm 1 mps 617 mmHg 50%
    03:00 +13°C° 0 mm 1 mps 617 mmHg 53%
    04:00 +12°C° 0 mm 1 mps 617 mmHg 56%
    05:00 +12°C° 0 mm 1 mps 617 mmHg 59%
    06:00 +13°C° 0 mm 1 mps 618 mmHg 54%
    07:00 +15°C° 0 mm 1 mps 619 mmHg 49%
    08:00 +16°C° 0 mm 1 mps 620 mmHg 45%
    09:00 +18°C° 0 mm 2 mps 621 mmHg 36%
    10:00 +21°C° 0 mm 2 mps 621 mmHg 28%
    11:00 +24°C° 0 mm 3 mps 622 mmHg 20%
    12:00 +25°C° 0 mm 3 mps 622 mmHg 18%
    13:00 +26°C° 0 mm 3 mps 621 mmHg 16%
    14:00 +27°C° 0 mm 3 mps 621 mmHg 15%
    15:00 +26°C° 0 mm 3 mps 620 mmHg 16%
    16:00 +25°C° 0 mm 3 mps 620 mmHg 18%
    17:00 +24°C° 0 mm 2 mps 620 mmHg 19%
    18:00 +21°C° 0 mm 2 mps 620 mmHg 23%
    19:00 +19°C° 0 mm 2 mps 619 mmHg 27%
    20:00 +18°C° 0 mm 1 mps 619 mmHg 30%
    21:00 +16°C° 0 mm 1 mps 619 mmHg 32%
    22:00 +16°C° 0 mm 1 mps 619 mmHg 33%
    23:00 +15°C° 0 mm 1 mps 619 mmHg 35%

    25 February, Sunday

    Time Temperature Precipitation Wind Pressure Humidity
    00:00 +14°C° 0 mm 1 mps 619 mmHg 40%
    01:00 +14°C° 0 mm 1 mps 618 mmHg 45%
    02:00 +13°C° 0 mm 1 mps 617 mmHg 51%
    03:00 +13°C° 0 mm 1 mps 617 mmHg 54%
    04:00 +12°C° 0 mm 1 mps 617 mmHg 58%
    05:00 +12°C° 0 mm 1 mps 617 mmHg 61%
    06:00 +13°C° 0 mm 1 mps 618 mmHg 56%
    07:00 +15°C° 0 mm 1 mps 619 mmHg 51%
    08:00 +16°C° 0 mm 1 mps 620 mmHg 46%
    09:00 +19°C° 0 mm 2 mps 621 mmHg 39%
    10:00 +21°C° 0 mm 2 mps 622 mmHg 31%
    11:00 +25°C° 0 mm 3 mps 623 mmHg 23%
    12:00 +25°C° 0 mm 3 mps 622 mmHg 23%
    13:00 +26°C° 0 mm 3 mps 622 mmHg 22%
    14:00 +27°C° 0 mm 3 mps 621 mmHg 21%
    15:00 +26°C° 0 mm 3 mps 621 mmHg 24%
    16:00 +25°C° 0 mm 2 mps 620 mmHg 26%
    17:00 +25°C° 0 mm 2 mps 620 mmHg 29%
    18:00 +23°C° 0 mm 2 mps 620 mmHg 34%
    19:00 +20°C° 0 mm 2 mps 620 mmHg 39%
    20:00 +19°C° 0 mm 1 mps 620 mmHg 43%
    21:00 +17°C° 0.1 mm 2 mps 620 mmHg 51%
    22:00 +17°C° 0.1 mm 2 mps 620 mmHg 58%
    23:00 +16°C° 0.1 mm 2 mps 620 mmHg 66%

    26 February, Monday

    Time Temperature Precipitation Wind Pressure Humidity
    00:00 +16°C° 0 mm 2 mps 619 mmHg 71%
    01:00 +15°C° 0 mm 1 mps 618 mmHg 76%
    02:00 +15°C° 0 mm 1 mps 618 mmHg 81%
    03:00 +15°C° 0 mm 1 mps 618 mmHg 82%
    04:00 +14°C° 0 mm 1 mps 618 mmHg 84%
    05:00 +14°C° 0 mm 1 mps 618 mmHg 85%
    06:00 +15°C° 0 mm 1 mps 619 mmHg 78%
    07:00 +18°C° 0 mm 1 mps 620 mmHg 70%
    08:00 +19°C° 0 mm 1 mps 621 mmHg 63%
    09:00 +20°C° 0 mm 2 mps 621 mmHg 54%
    10:00 +23°C° 0 mm 2 mps 622 mmHg 45%
    11:00 +25°C° 0 mm 3 mps 622 mmHg 36%
    12:00 +26°C° 0 mm 3 mps 622 mmHg 34%
    13:00 +27°C° 0 mm 3 mps 621 mmHg 32%
    14:00 +27°C° 0 mm 3 mps 621 mmHg 30%
    15:00 +27°C° 0 mm 3 mps 620 mmHg 31%
    16:00 +26°C° 0 mm 3 mps 620 mmHg 33%
    17:00 +25°C° 0 mm 2 mps 620 mmHg 35%
    18:00 +23°C° 0 mm 2 mps 620 mmHg 40%
    19:00 +21°C° 0 mm 2 mps 620 mmHg 45%
    20:00 +20°C° 0 mm 1 mps 620 mmHg 50%
    21:00 +19°C° 0 mm 1 mps 620 mmHg 53%
    22:00 +18°C° 0 mm 2 mps 619 mmHg 56%
    23:00 +17°C° 0 mm 2 mps 619 mmHg 60%
    Show more